Location: Detroit
(42.3310°N, 83.0460°W)
Time: 00:02:31
(UTC-05:00)

Altair - Visible Passes

Search period start: 30 January 2023 00:00
Search period end: 09 February 2023 00:00
Orbit: 1501 x 1683 km, 47.2° (Epoch: 29 January)

Date Brightness Start Highest point End Pass type
(mag) Time Alt. Az. Time Alt. Az. Time Alt. Az.
30 Jan 8.9 04:15:32 24° S 04:15:32 24° S 04:19:08 10° SSE visible
30 Jan 8.1 19:16:38 10° SSW 19:25:06 36° SE 19:29:05 27° E visible
30 Jan 7.7 21:19:20 10° WSW 21:27:08 63° WSW 21:27:08 63° WSW visible
30 Jan 9.7 23:24:43 10° W 23:25:12 12° W 23:25:12 12° W visible
31 Jan 9.3 03:52:21 17° SSE 03:52:21 17° SSE 03:54:10 10° SSE visible
31 Jan 8.3 18:51:47 10° SSW 19:00:01 33° SE 19:05:42 19° E visible
31 Jan 7.4 20:54:10 10° WSW 21:03:45 83° S 21:03:45 83° S visible
31 Jan 9.3 22:59:26 10° W 23:01:48 20° W 23:01:48 20° W visible
01 Feb 8.4 18:27:00 10° S 18:34:56 31° SE 18:42:15 13° ENE visible
01 Feb 7.4 20:29:01 10° SW 20:38:43 80° SSE 20:40:18 67° E visible
01 Feb 8.9 22:34:10 10° W 22:38:21 29° W 22:38:21 29° W visible
02 Feb 8.5 18:02:16 10° S 18:09:51 28° SE 18:17:41 10° ENE visible
02 Feb 7.5 20:03:53 10° SW 20:13:30 76° SSE 20:16:49 48° ENE visible
02 Feb 8.4 22:08:54 10° W 22:14:51 42° WNW 22:14:51 42° WNW visible
03 Feb 7.5 19:38:47 10° SW 19:48:19 72° SSE 19:53:16 34° ENE visible
03 Feb 8.0 21:43:39 10° W 21:51:18 57° WNW 21:51:18 57° WNW visible
03 Feb 9.8 23:49:11 10° WNW 23:49:20 11° WNW 23:49:20 11° WNW visible
04 Feb 7.6 19:13:41 10° SW 19:23:08 68° SE 19:29:40 24° ENE visible
04 Feb 7.6 21:18:23 10° W 21:27:43 70° NNW 21:27:43 70° NNW visible
04 Feb 9.4 23:23:56 10° WNW 23:25:44 17° WNW 23:25:44 17° WNW visible
05 Feb 7.7 18:48:36 10° SW 18:57:58 64° SE 19:06:02 17° ENE visible
05 Feb 7.5 20:53:08 10° W 21:02:53 72° NNW 21:04:04 67° NNE visible
05 Feb 9.1 22:58:42 10° WNW 23:02:06 25° WNW 23:02:06 25° WNW visible
06 Feb 7.8 18:23:33 10° SW 18:32:49 60° SE 18:42:22 10° ENE visible
06 Feb 7.6 20:27:54 10° W 20:37:37 74° NNW 20:40:24 52° NE visible
06 Feb 8.7 22:33:28 10° WNW 22:38:26 35° WNW 22:38:26 35° WNW visible
07 Feb 7.6 20:02:40 10° WSW 20:12:20 76° NNW 20:16:42 39° ENE visible
07 Feb 8.3 22:08:13 10° WNW 22:14:44 46° WNW 22:14:44 46° WNW visible
08 Feb 7.6 19:37:26 10° WSW 19:47:05 78° NNW 19:52:58 29° ENE visible
08 Feb 7.9 21:42:58 10° WNW 21:51:00 59° NW 21:51:00 59° NW visible
